This is the latest recevied weather packets stored in our database for station/object KF7PIZ. If no packets are shown the sender has not sent any weather packets the latest 10 day(s).
| Time | Temp. | Humidity | Pressure | Rain* | Wind** | Luminosity | Snow |
|---|---|---|---|---|---|---|---|
| 1777547937 | 2.78° C | 75% | 1019.8 hPa | 0 mm | - | 0 W/m² | - |
| 1777547633 | 2.78° C | 74% | 1019.7 hPa | 0 mm | - | 0 W/m² | - |
| 1777547330 | 3.33° C | 72% | 1019.8 hPa | 0 mm | - | 0 W/m² | - |
| 1777547027 | 3.33° C | 72% | 1019.6 hPa | 0 mm | - | 0 W/m² | - |
| 1777546724 | 3.33° C | 72% | 1019.7 hPa | 0 mm | - | 0 W/m² | - |
| 1777546421 | 3.33° C | 72% | 1019.9 hPa | 0 mm | - | 0 W/m² | - |
| 1777546118 | 3.33° C | 72% | 1019.9 hPa | 0 mm | - | 0 W/m² | - |
| 1777545813 | 3.33° C | 71% | 1019.8 hPa | 0 mm | - | 0 W/m² | - |
| 1777545511 | 3.33° C | 71% | 1019.7 hPa | 0 mm | - | 0 W/m² | - |
| 1777545207 | 3.33° C | 70% | 1019.6 hPa | 0 mm | - | 0 W/m² | - |
| 1777544906 | 3.33° C | 69% | 1019.6 hPa | 0 mm | - | 0 W/m² | - |
| 1777544601 | 3.89° C | 68% | 1019.8 hPa | 0 mm | - | 0 W/m² | - |
| 1777544298 | 3.89° C | 67% | 1019.7 hPa | 0 mm | - | 0 W/m² | - |
| 1777543995 | 3.89° C | 67% | 1019.5 hPa | 0 mm | - | 0 W/m² | - |
| 1777543692 | 3.89° C | 67% | 1019.5 hPa | 0 mm | - | 0 W/m² | - |
| 1777543388 | 3.89° C | 67% | 1019.6 hPa | 0 mm | - | 0 W/m² | - |
| 1777543083 | 3.89° C | 67% | 1019.8 hPa | 0 mm | - | 0 W/m² | - |
| 1777542780 | 3.89° C | 67% | 1019.7 hPa | 0 mm | - | 0 W/m² | - |
| 1777542476 | 4.44° C | 66% | 1019.6 hPa | 0 mm | - | 0 W/m² | - |
| 1777542173 | 4.44° C | 68% | 1019.7 hPa | 0 mm | - | 0 W/m² | - |
| 1777541870 | 4.44° C | 69% | 1019.7 hPa | 0 mm | - | 0 W/m² | - |
| 1777541567 | 4.44° C | 70% | 1019.6 hPa | 0 mm | - | 0 W/m² | - |
| 1777541264 | 4.44° C | 69% | 1019.7 hPa | 0 mm | - | 0 W/m² | - |
| 1777540959 | 4.44° C | 66% | 1019.8 hPa | 0 mm | - | 0 W/m² | - |
| 1777540657 | 5° C | 66% | 1019.6 hPa | 0 mm | - | 0 W/m² | - |
* Rain latest hour (hover to see other rain measurements)
** Current wind speed in m/s (hover to see current wind gust speed)